Weather in Impilakhti

Russia / Republic of Karelia     61°40′15″N   31°09′27″E
temp.,
°C
wind,
m/s
gust,
m/s
humid.,
%
clouds,
%
prec.,
mm/h
press.,
hPa
HPBL,
m
27 july, tue
tue2700:00+17n126810 0.0 101916
03:00+17ssw006795 0.0 101911
06:00+17ne117640 0.1 101937
09:00+20e127022 0.4 1019157
12:00+27sw233911 0.0 10181111
15:00+27sw453880 0.1 10171340
18:00+25ssw34425 0.1 1016397
21:00+20ese37707 0.1 1016210
28 july, wed
wed2800:00+16ese27944 0.0 1016140
03:00+14e279452 0.0 1015127
06:00+16e268797 0.0 1014152
09:00+22sse235483 0.0 1012399
12:00+26ssw3441100 0.0 1011917
15:00+24ssw3445100 0.0 1009444
18:00+23s355396 0.0 1007356
21:00+18s117885 0.0 100726
29 july, thu
thu2900:00+16s2493100 0.2 100698
03:00+16s2492100 0.4 1004109
06:00+16sse249497 0.1 1003138
09:00+19s358556 0.4 1002457
12:00+21ssw3472100 1.1 1001584
15:00+18wsw3690100 4.4 1000284
18:00+19sw3883100 1.8 998402
21:00+17sw39894 3.5 998234
30 july, fri
fri3000:00+16sw311935 1.1 998290
03:00+14sw31093100 1.1 998264
06:00+15sw310935 0.0 999378
09:00+19sw5874100 0.1 999894
12:00+21ssw695653 0.3 9981449
15:00+22ssw7104578 0.9 9971763
18:00+21sw6104515 0.0 9971591
21:00+18sw51059100 0.0 9961044
31 july, sat
sat3100:00+15ssw41072100 0.1 996472
03:00+15sse41178100 0.1 994426
06:00+13s61394100 1.3 992731
09:00+14s71293100 3.6 989798
12:00+17ssw698953 14.9 989956
15:00+18wsw598327 16.6 990972
18:00+18w59816 1.2 9911018
21:00+16wsw37805 1.3 993207